Home > Weather > Riverview > Past weeks

Flag for Canada Weather for the Past 2 Weeks in Riverview, New Brunswick, Canada

Now
39 °F

Passing clouds.


Feels Like: 30 °F
Forecast: N/A
Wind: 17 mph from West

Location: Moncton

Current Time: Apr 28, 2016 at 7:25:09 PM

Latest Report: Apr 28, 2016 at 6:00 PM


Visibility: 15 mi

Pressure: 29.98 "Hg

Humidity: 24%

Dew Point: 5 °F

Location of RiverviewLocation

Historic Weather in Riverview — Graph

°F

Riverview Temperature Yesterday

Maximum temperature yesterday: 52 °F (at 3:00 PM)
Minimum temperature yesterday: 25 °F (at 4:00 AM)
Average temperature yesterday: 38 °F

High & Low Weather Summary for the Past Weeks

 TemperatureHumidityPressure
High70 °F (Apr 21, 3:00 PM)100% (Apr 17, 2:50 AM)30.58 "Hg (Apr 17, 2:50 AM)
Low23 °F (Apr 26, 4:00 AM)17% (Apr 24, 6:00 PM)29.69 "Hg (Apr 21, 5:00 PM)
Average39 °F61%30.06 "Hg
* Reported Apr 13 6:00 PM — Apr 28 6:00 PM, Riverview, Weather by CustomWeather, © 2016

Note: Actual official high and low records may vary slightly from our data, if they occured in-between our weather recording intervals... More about our weather records

Advertising

Riverview Weather History for the Previous 24 Hours

Scroll right to see more
 ConditionsComfort  
Time TempWeatherWind HumidityBarometerVisibility
6:00 PM
Thu, Apr 28
39 °FPassing clouds.17 mph24%29.98 "Hg15 mi
5:00 PM37 °FScattered clouds.16 mph26%29.96 "Hg15 mi
4:00 PM37 °FPartly sunny.14 mph26%29.95 "Hg15 mi
3:00 PM37 °FPartly sunny.20 mph26%29.95 "Hg15 mi
2:00 PM34 °FPartly sunny.16 mph35%29.95 "Hg15 mi
1:00 PM36 °FPartly sunny.17 mph35%29.94 "Hg15 mi
12:00 PM36 °FPartly sunny.21 mph38%29.92 "Hg15 mi
11:00 AM32 °FScattered clouds.15 mph44%29.92 "Hg15 mi
10:00 AM30 °FScattered clouds.14 mph59%29.91 "Hg15 mi
9:00 AM28 °FPartly sunny.14 mph69%29.90 "Hg15 mi
8:00 AM27 °FLight snow. Partly sunny.8 mph80%29.89 "Hg4 mi
7:00 AM25 °FLight snow. Passing clouds.7 mph86%29.87 "Hg12 mi
6:54 AM25 °FLight snow. Partly cloudy.6 mph86%29.87 "Hg8 mi
6:00 AM27 °FLight snow. Low clouds.10 mph86%29.84 "Hg3 mi
5:00 AM27 °FLight snow. Mostly cloudy.14 mph86%29.83 "Hg3 mi
4:48 AM27 °FLight snow. Passing clouds.12 mph93%29.83 "Hg3 mi
4:04 AM27 °FLight snow. Ice fog.9 mph93%29.83 "Hg1 mi
2:00 AM28 °FLight snow. Ice fog.6 mph93%29.83 "Hg1 mi
1:03 AM30 °FSnow flurries. Overcast.14 mph93%29.82 "Hg6 mi
12:00 AM34 °FSnow flurries. Overcast.14 mph65%29.81 "Hg15 mi
11:00 PM
Wed, Apr 27
34 °FPartly cloudy.17 mph70%29.78 "Hg15 mi
10:00 PM34 °FPartly cloudy.14 mph81%29.78 "Hg15 mi
9:00 PM36 °FPartly sunny.14 mph81%29.76 "Hg15 mi
8:00 PM41 °FBroken clouds.13 mph61%29.74 "Hg15 mi
7:00 PM48 °FBroken clouds.12 mph21%29.72 "Hg15 mi
Weather by CustomWeather, © 2016

See weather overviewHow to use our weather pages